Location: Rounton
(54.4000°N, 1.3500°W)
Time: 23:07:44
(UTC+01:00)

Vanguard 1 - Pass Details

Date: 26 February 2024
Orbit: 653 x 3825 km, 34.2° (Epoch: 21 April)

Event Time Altitude Azimuth Distance (km) Brightness Sun altitude
Rises 02:24:16 0° 275° (W) 7,525 14.3 -38.1°
Enters shadow 02:24:50 - 274° (W) 7,463 14.3 -38.0°
Reaches altitude 10° 02:31:42 10° 260° (W) 6,799 - -37.4°
Maximum altitude 02:44:30 19° 226° (SW) 6,170 - -36.1°
Drops below altitude 10° 02:56:57 10° 191° (SSW) 6,512 - -34.7°
Exits shadow 03:02:30 - 179° (S) 6,955 14.1 -34.1°
Sets 03:03:58 0° 176° (S) 7,099 14.2 -33.9°
